RYR554 EIDW-EGCC

Flight info

Callsign RYR554
Flight time 0h 33m
Altitude 21000
Route BOFUM3J BOFUM Q37 MALUD
Aircraft B738/M-SDE2E3FGHIRWXY/LB1

Departure

Time 2026-04-30 17:41
Airport Dublin Airport (EIDW)

Arrival

Time 2026-04-30 18:15
Airport Manchester Airport (EGCC)
Time Latitude Longitude Altitude Speed Heading
2026-04-30 17:39 53.42370 -6.28278 224 ft 11 kts 243°
2026-04-30 17:41 53.41821 -6.21278 2234 ft 168 kts 101°
2026-04-30 17:42 53.41556 -6.16785 2958 ft 219 kts 101°
2026-04-30 17:42 53.41119 -6.08525 4964 ft 255 kts 100°
2026-04-30 17:43 53.41038 -6.02538 6745 ft 275 kts 79°
2026-04-30 17:44 53.43259 -5.93593 9014 ft 280 kts 73°
2026-04-30 17:44 53.45461 -5.84392 9906 ft 287 kts 74°
2026-04-30 17:46 53.49642 -5.66951 12791 ft 348 kts 74°
2026-04-30 17:47 53.53338 -5.51453 15692 ft 363 kts 77°
2026-04-30 17:48 53.53354 -5.34177 17702 ft 383 kts 98°
2026-04-30 17:48 53.53014 -5.20656 19470 ft 393 kts 98°
2026-04-30 17:49 53.52459 -5.02040 21089 ft 406 kts 98°
2026-04-30 17:50 53.51824 -4.83024 21103 ft 407 kts 98°
2026-04-30 17:51 53.51337 -4.68794 21108 ft 407 kts 98°
2026-04-30 17:52 53.50836 -4.54572 21110 ft 406 kts 99°
2026-04-30 17:53 53.49967 -4.30954 21112 ft 405 kts 99°
2026-04-30 17:54 53.49239 -4.12075 21098 ft 405 kts 99°
2026-04-30 17:55 53.48194 -3.93816 20802 ft 366 kts 112°
2026-04-30 17:56 53.44904 -3.78130 19166 ft 350 kts 115°
2026-04-30 17:57 53.42524 -3.66680 17791 ft 343 kts 114°
2026-04-30 17:58 53.40940 -3.55055 16496 ft 345 kts 99°
2026-04-30 17:59 53.40340 -3.38919 14849 ft 347 kts 99°
2026-04-30 18:00 53.39631 -3.22913 13150 ft 338 kts 99°
2026-04-30 18:00 53.39820 -3.11635 11966 ft 322 kts 71°
2026-04-30 18:01 53.41975 -3.05176 11209 ft 312 kts 63°
2026-04-30 18:02 53.45229 -2.96017 10132 ft 298 kts 63°
2026-04-30 18:02 53.48263 -2.87282 9069 ft 283 kts 64°
2026-04-30 18:03 53.51166 -2.78849 8050 ft 273 kts 64°
2026-04-30 18:04 53.53394 -2.70437 7177 ft 249 kts 100°
2026-04-30 18:05 53.48719 -2.65545 6688 ft 212 kts 174°
2026-04-30 18:06 53.42827 -2.64849 5746 ft 210 kts 175°
2026-04-30 18:07 53.37031 -2.64143 4898 ft 206 kts 174°
2026-04-30 18:08 53.32796 -2.63702 4246 ft 202 kts 174°
2026-04-30 18:09 53.29016 -2.58071 3398 ft 195 kts 120°
2026-04-30 18:10 53.26581 -2.50216 3013 ft 177 kts 120°
2026-04-30 18:11 53.27771 -2.43313 2423 ft 162 kts 62°
2026-04-30 18:11 53.29771 -2.39067 1821 ft 146 kts 59°
2026-04-30 18:12 53.31609 -2.35263 1255 ft 138 kts 59°
2026-04-30 18:13 53.32885 -2.32701 829 ft 142 kts 54°
2026-04-30 18:13 53.34496 -2.29313 307 ft 140 kts 57°
2026-04-30 18:14 53.35687 -2.26849 264 ft 52 kts 51°
2026-04-30 18:15 53.35930 -2.26711 255 ft 0 kts 349°
2026-04-30 18:16 53.35931 -2.26711 255 ft 0 kts 349°
2026-04-30 18:16 53.35932 -2.26713 255 ft 1 kts 334°
2026-04-30 18:17 53.35932 -2.26743 255 ft 6 kts 258°
2026-04-30 18:17 53.35922 -2.26813 255 ft 6 kts 286°
2026-04-30 18:17 53.35920 -2.26893 254 ft 8 kts 272°
2026-04-30 18:18 53.35923 -2.26958 254 ft 5 kts 275°
2026-04-30 18:18 53.35924 -2.26981 254 ft 0 kts 275°